Location: Maiden
(35.5760°N, 81.2120°W)
Time: 05:27:13
(UTC-04:00)

H-2A R/B - Pass Details

Date: 14 June 2018
Orbit: 734 x 836 km, 98.3° (Epoch: 21 October)

Event Time Altitude Azimuth Distance (km) Brightness Sun altitude
Exits shadow 23:38:28 13° 235° (SW) 2,112 4.2 -25.9°
Maximum altitude 23:40:54 18° 267° (W) 1,871 4.2 -26.1°
Drops below altitude 10° 23:44:22 10° 309° (NW) 2,379 5.4 -26.5°
Sets 23:47:32 0° 328° (NNW) 3,335 6.6 -26.7°
